Francistown, Botswana

6:07 PM CAT on August 16, 2017 (GMT +0200)
Francistown

Weather History for FBFT - September, 2012

Change the Weather History Date:

Monday, September 10, 2012

  Actual Average Record
Temperature  
Mean Temperature 70 °F -  
Max Temperature 92 °F 84 °F 100 °F (2008)
Min Temperature 49 °F 57 °F 42 °F (2011)
Cooling Degree Days 6    
Growing Degree Days 20 (Base 50)    
Moisture  
Dew Point 33 °F    
Average Humidity 26    
Maximum Humidity 58    
Minimum Humidity 4    
Precipitation  
Precipitation 0.00 in - - ()
Sea Level Pressure  
Sea Level Pressure 30.06 in    
Wind  
Wind Speed 5 mph ()    
Max Wind Speed 13 mph    
Max Gust Speed -    
Visibility 6.0 miles    
Events      
Averages and records for this station are not official NWS values.
T = Trace of Precipitation, MM = Missing Value Source: Averaged Metar Reports

Daily Weather History Graph

Daily Weather History Graph

Search for Another Location

Airport or City:

Trip Planner

Search our weather history database for the weather conditions in past years. The results will help you decide how hot, cold, wet, or windy it might be!

Date:

Astronomy

Sep. 10, 2012 Rise Set
Actual Time 6:10 AM CAT 6:03 PM CAT
Civil Twilight 5:48 AM CAT 6:25 PM CAT
Nautical Twilight 5:22 AM CAT 6:51 PM CAT
Astronomical Twilight 4:57 AM CAT 7:16 PM CAT
Moon 1:40 AM CAT (9/10) 12:56 PM CAT (9/10)
Length of Visible Light 12h 36m
Length of Day
11h 52m
Waning Crescent, 32% of the Moon is Illuminated
Sep 10
Waning Crescent
Sep 16
New
Sep 22
First Quarter
Sep 30
Full
Oct 8
Last Quarter

Hourly Weather History & Observations

Time (CAT) Temp. Dew Point Humidity Pressure Visibility Wind Dir Wind Speed Gust Speed Precip Events Conditions
12:00 AM 62.6 °F 37.4 °F 39% 30.06 in - NNE 5.8 mph - N/A   Clear
1:00 AM 62.6 °F 39.2 °F 42% 30.06 in - NE 4.6 mph - N/A   Clear
2:00 AM 64 °F 27 °F 14%  in 6 mi SSE 6.9 mph - -  
3:00 AM 53.6 °F 39.2 °F 58% 30.06 in - North 3.5 mph - N/A   Clear
4:00 AM 53.6 °F 35.6 °F 51% 30.06 in - North 3.5 mph - N/A   Clear
5:00 AM 50.0 °F 35.6 °F 58% 30.06 in - Variable 1.2 mph - N/A   Clear
6:00 AM 50.0 °F 32.0 °F 50% 30.06 in - Variable 2.3 mph - N/A   Clear
7:00 AM 55.4 °F 39.2 °F 54% 30.09 in - NE 4.6 mph - N/A   Clear
8:00 AM 67 °F 48 °F 39%  in 6 mi NE 5.8 mph - -  
8:00 AM 68.0 °F 48.2 °F 49% 30.09 in - NE 5.8 mph - N/A   Clear
9:00 AM 78.8 °F 48.2 °F 34% 30.09 in - ENE 12.7 mph - N/A   Clear
10:00 AM 84.2 °F 41.0 °F 22% 30.09 in - North 4.6 mph - N/A   Clear
11:00 AM 87.8 °F 30.2 °F 13% 30.09 in - SSW 5.8 mph - N/A   Clear
12:00 PM 87.8 °F 32.0 °F 14% 30.06 in - SW 4.6 mph - N/A   Clear
1:00 PM 89.6 °F 24.8 °F 10% 30.04 in - Variable 2.3 mph - N/A   Clear
2:00 PM 91 °F 28 °F 4%  in 6 mi ESE 11.5 mph - -  
2:00 PM 91.4 °F 28.4 °F 10% 30.04 in - ESE 11.5 mph - N/A   Clear
3:00 PM 91.4 °F 28.4 °F 10% 30.01 in - SE 6.9 mph - N/A   Clear
4:00 PM 91.4 °F 26.6 °F 10% 30.01 in - SSE 5.8 mph - N/A   Clear
5:00 PM 89.6 °F 26.6 °F 10% 30.01 in - SSE 9.2 mph - N/A   Clear
6:00 PM 87.8 °F 26.6 °F 11% 30.04 in - SE 4.6 mph - N/A   Clear
7:00 PM 80.6 °F 26.6 °F 14% 30.04 in - East 6.9 mph - N/A   Clear
8:00 PM 76 °F 28 °F 9%  in 6 mi ESE 8.1 mph - -  
8:00 PM 75.2 °F 28.4 °F 18% 30.06 in - ESE 8.1 mph - N/A   Clear
9:00 PM 78.8 °F 28.4 °F 16% 30.09 in - East 9.2 mph - N/A   Clear
10:00 PM 77.0 °F 28.4 °F 17% 30.09 in - ENE 9.2 mph - N/A   Clear
11:00 PM 73.4 °F 28.4 °F 19% 30.09 in - East 4.6 mph - N/A   Clear